Time,TemperatureF,DewpointF,PressureIn,WindDirection,WindDirectionDegrees,WindSpeedMPH,WindSpeedGustMPH,Humidity,HourlyPrecipIn,Conditions,Clouds,dailyrainin,SoftwareType,DateUTC
2014-09-22 00:01:00,64.9,48.4,29.76,ESE,106,2.3,2.3,55,0.00,,,0.00,CWS Microserver 2.2,2014-09-22 07:01:00,
2014-09-22 00:06:00,65.1,48.1,29.76,East,89,2.1,2.7,54,0.00,,,0.00,CWS Microserver 2.2,2014-09-22 07:06:00,
2014-09-22 00:11:00,65.1,47.9,29.76,ENE,66,3.0,3.1,53,0.00,,,0.00,CWS Microserver 2.2,2014-09-22 07:11:00,
2014-09-22 00:16:00,64.5,47.8,29.76,East,92,2.6,3.5,54,0.00,,,0.00,CWS Microserver 2.2,2014-09-22 07:16:00,
2014-09-22 00:21:00,64.9,48.1,29.76,East,90,2.2,3.5,54,0.00,,,0.00,CWS Microserver 2.2,2014-09-22 07:21:00,
2014-09-22 00:26:00,64.7,47.8,29.76,East,85,2.0,2.8,54,0.00,,,0.00,CWS Microserver 2.2,2014-09-22 07:26:00,
2014-09-22 00:31:00,64.5,48.0,29.77,ESE,109,3.6,3.9,55,0.00,,,0.00,CWS Microserver 2.2,2014-09-22 07:31:00,
2014-09-22 00:36:00,64.5,48.3,29.77,East,88,2.1,3.9,55,0.00,,,0.00,CWS Microserver 2.2,2014-09-22 07:36:00,
2014-09-22 00:41:00,64.2,47.7,29.77,East,81,2.3,4.3,55,0.00,,,0.00,CWS Microserver 2.2,2014-09-22 07:41:00,
2014-09-22 00:46:00,64.4,47.7,29.77,ENE,69,1.9,4.3,54,0.00,,,0.00,CWS Microserver 2.2,2014-09-22 07:46:00,
2014-09-22 00:51:00,64.2,47.9,29.77,East,87,2.1,3.0,55,0.00,,,0.00,CWS Microserver 2.2,2014-09-22 07:51:00,
2014-09-22 00:56:00,64.2,47.9,29.77,ESE,103,2.4,2.7,55,0.00,,,0.00,CWS Microserver 2.2,2014-09-22 07:56:00,
2014-09-22 01:01:00,63.8,47.6,29.77,East,80,2.0,2.7,55,0.00,,,0.00,CWS Microserver 2.2,2014-09-22 08:01:00,
2014-09-22 01:06:00,64.0,47.5,29.77,ENE,71,3.1,3.3,55,0.00,,,0.00,CWS Microserver 2.2,2014-09-22 08:06:00,
2014-09-22 01:11:00,64.0,47.2,29.78,East,83,2.8,3.3,54,0.00,,,0.00,CWS Microserver 2.2,2014-09-22 08:11:00,
2014-09-22 01:16:00,64.2,47.4,29.78,East,100,3.2,3.2,54,0.00,,,0.00,CWS Microserver 2.2,2014-09-22 08:16:00,
2014-09-22 01:21:00,64.0,47.4,29.78,East,93,4.0,4.8,54,0.00,,,0.00,CWS Microserver 2.2,2014-09-22 08:21:00,
2014-09-22 01:26:00,64.0,47.3,29.78,ENE,61,3.5,4.8,54,0.00,,,0.00,CWS Microserver 2.2,2014-09-22 08:26:00,
2014-09-22 01:31:00,63.3,47.2,29.78,ENE,69,3.0,4.4,55,0.00,,,0.00,CWS Microserver 2.2,2014-09-22 08:31:00,
2014-09-22 01:36:00,63.1,47.3,29.78,East,99,1.9,4.2,56,0.00,,,0.00,CWS Microserver 2.2,2014-09-22 08:36:00,
2014-09-22 01:41:00,62.9,47.4,29.78,East,91,0.2,3.2,57,0.00,,,0.00,CWS Microserver 2.2,2014-09-22 08:41:00,
2014-09-22 01:46:00,62.6,47.2,29.78,North,8,1.3,3.0,57,0.00,,,0.00,CWS Microserver 2.2,2014-09-22 08:46:00,
2014-09-22 01:51:00,62.4,47.4,29.78,SE,133,0.4,2.2,58,0.00,,,0.00,CWS Microserver 2.2,2014-09-22 08:51:00,
2014-09-22 01:56:00,62.0,47.2,29.78,NE,43,1.1,1.6,58,0.00,,,0.00,CWS Microserver 2.2,2014-09-22 08:56:00,
2014-09-22 02:01:00,62.0,47.0,29.78,NE,37,2.3,3.5,58,0.00,,,0.00,CWS Microserver 2.2,2014-09-22 09:01:00,
2014-09-22 02:06:00,62.0,46.9,29.78,NE,55,2.4,3.6,57,0.00,,,0.00,CWS Microserver 2.2,2014-09-22 09:06:00,
2014-09-22 02:11:00,62.2,46.8,29.78,ENE,70,2.3,3.6,57,0.00,,,0.00,CWS Microserver 2.2,2014-09-22 09:11:00,
2014-09-22 02:16:00,62.4,46.7,29.78,ENE,78,2.7,3.0,56,0.00,,,0.00,CWS Microserver 2.2,2014-09-22 09:16:00,
2014-09-22 02:21:00,62.7,46.5,29.78,ENE,66,2.9,3.0,55,0.00,,,0.00,CWS Microserver 2.2,2014-09-22 09:21:00,
2014-09-22 02:26:00,62.9,46.5,29.79,East,89,1.4,2.9,55,0.00,,,0.00,CWS Microserver 2.2,2014-09-22 09:26:00,
2014-09-22 02:31:00,62.6,46.8,29.79,East,100,2.9,3.0,56,0.00,,,0.00,CWS Microserver 2.2,2014-09-22 09:31:00,
2014-09-22 02:36:00,62.2,46.8,29.79,East,99,3.2,3.9,57,0.00,,,0.00,CWS Microserver 2.2,2014-09-22 09:36:00,
2014-09-22 02:41:00,62.4,46.8,29.79,East,92,2.0,3.9,56,0.00,,,0.00,CWS Microserver 2.2,2014-09-22 09:41:00,
2014-09-22 02:46:00,63.1,46.5,29.79,East,99,1.9,3.2,54,0.00,,,0.00,CWS Microserver 2.2,2014-09-22 09:46:00,
2014-09-22 02:51:00,64.2,46.5,29.79,East,94,2.9,3.1,52,0.00,,,0.00,CWS Microserver 2.2,2014-09-22 09:51:00,
2014-09-22 02:56:00,65.6,46.0,29.79,SE,136,3.5,4.1,49,0.00,,,0.00,CWS Microserver 2.2,2014-09-22 09:56:00,
2014-09-22 03:01:00,67.8,45.0,29.80,SSE,153,7.0,9.0,44,0.00,,,0.00,CWS Microserver 2.2,2014-09-22 10:01:00,
2014-09-22 03:06:00,68.9,44.7,29.80,SSE,156,6.2,9.0,41,0.00,,,0.00,CWS Microserver 2.2,2014-09-22 10:06:00,
2014-09-22 03:11:00,69.2,44.4,29.80,South,177,3.4,8.2,41,0.00,,,0.00,CWS Microserver 2.2,2014-09-22 10:11:00,
2014-09-22 03:16:00,69.4,44.4,29.80,South,175,7.0,9.7,40,0.00,,,0.00,CWS Microserver 2.2,2014-09-22 10:16:00,
2014-09-22 03:21:00,69.2,44.5,29.80,South,174,4.1,9.7,41,0.00,,,0.00,CWS Microserver 2.2,2014-09-22 10:21:00,
2014-09-22 03:26:00,68.9,44.5,29.81,SSW,192,3.2,7.6,41,0.00,,,0.00,CWS Microserver 2.2,2014-09-22 10:26:00,
2014-09-22 03:31:00,68.5,44.7,29.81,South,190,3.7,6.5,42,0.00,,,0.00,CWS Microserver 2.2,2014-09-22 10:31:00,
2014-09-22 03:36:00,68.3,44.5,29.81,South,170,1.9,6.4,42,0.00,,,0.00,CWS Microserver 2.2,2014-09-22 10:36:00,
2014-09-22 03:41:00,68.3,44.6,29.81,South,191,2.8,6.4,42,0.00,,,0.00,CWS Microserver 2.2,2014-09-22 10:41:00,
2014-09-22 03:46:00,68.3,44.8,29.81,South,185,3.2,5.9,42,0.00,,,0.00,CWS Microserver 2.2,2014-09-22 10:46:00,
2014-09-22 03:51:00,68.3,44.9,29.81,South,180,2.5,4.8,43,0.00,,,0.00,CWS Microserver 2.2,2014-09-22 10:51:00,
2014-09-22 03:56:00,68.3,44.9,29.81,South,183,1.6,5.0,43,0.00,,,0.00,CWS Microserver 2.2,2014-09-22 10:56:00,
2014-09-22 04:01:00,68.5,45.0,29.81,South,170,1.9,5.0,42,0.00,,,0.00,CWS Microserver 2.2,2014-09-22 11:01:00,
2014-09-22 04:06:00,68.7,45.2,29.81,SSE,164,2.6,4.8,42,0.00,,,0.00,CWS Microserver 2.2,2014-09-22 11:06:00,
2014-09-22 04:11:00,68.7,45.1,29.81,SSE,148,3.6,4.8,42,0.00,,,0.00,CWS Microserver 2.2,2014-09-22 11:11:00,
2014-09-22 04:16:00,68.5,44.9,29.81,SE,128,2.7,4.4,42,0.00,,,0.00,CWS Microserver 2.2,2014-09-22 11:16:00,
2014-09-22 04:21:00,68.7,44.9,29.81,ESE,116,2.5,5.1,42,0.00,,,0.00,CWS Microserver 2.2,2014-09-22 11:21:00,
2014-09-22 04:26:00,68.9,45.2,29.81,ESE,122,2.6,5.2,42,0.00,,,0.00,CWS Microserver 2.2,2014-09-22 11:26:00,
2014-09-22 04:31:00,69.0,45.3,29.81,ESE,105,1.7,5.2,42,0.00,,,0.00,CWS Microserver 2.2,2014-09-22 11:31:00,
2014-09-22 04:36:00,68.9,45.6,29.81,ESE,113,2.6,4.2,43,0.00,,,0.00,CWS Microserver 2.2,2014-09-22 11:36:00,
2014-09-22 04:41:00,69.2,45.5,29.81,SE,140,2.8,4.8,42,0.00,,,0.00,CWS Microserver 2.2,2014-09-22 11:41:00,
2014-09-22 04:46:00,69.6,45.7,29.80,SE,124,2.1,4.9,42,0.00,,,0.00,CWS Microserver 2.2,2014-09-22 11:46:00,
2014-09-22 04:51:00,69.9,45.5,29.80,SSE,164,4.0,4.9,41,0.00,,,0.00,CWS Microserver 2.2,2014-09-22 11:51:00,
2014-09-22 04:56:00,70.1,45.6,29.80,ESE,110,3.2,4.2,41,0.00,,,0.00,CWS Microserver 2.2,2014-09-22 11:56:00,
2014-09-22 05:01:00,70.3,45.7,29.80,ESE,105,1.8,6.0,41,0.00,,,0.00,CWS Microserver 2.2,2014-09-22 12:01:00,
2014-09-22 05:06:00,70.3,45.7,29.80,ESE,122,1.8,6.0,41,0.00,,,0.00,CWS Microserver 2.2,2014-09-22 12:06:00,
2014-09-22 05:11:00,70.5,45.7,29.80,ESE,118,2.6,5.0,41,0.00,,,0.00,CWS Microserver 2.2,2014-09-22 12:11:00,
2014-09-22 05:16:00,71.0,45.7,29.80,East,100,3.0,5.1,40,0.00,,,0.00,CWS Microserver 2.2,2014-09-22 12:16:00,
2014-09-22 05:21:00,71.4,45.8,29.79,SSE,154,4.7,5.1,40,0.00,,,0.00,CWS Microserver 2.2,2014-09-22 12:21:00,
2014-09-22 05:26:00,71.6,45.7,29.79,SE,125,4.8,6.3,39,0.00,,,0.00,CWS Microserver 2.2,2014-09-22 12:26:00,
2014-09-22 05:31:00,71.7,45.6,29.79,SSE,167,2.9,6.3,39,0.00,,,0.00,CWS Microserver 2.2,2014-09-22 12:31:00,
2014-09-22 05:36:00,71.6,45.7,29.79,SE,132,2.4,5.7,39,0.00,,,0.00,CWS Microserver 2.2,2014-09-22 12:36:00,
2014-09-22 05:41:00,71.7,45.9,29.79,SE,137,2.6,3.7,39,0.00,,,0.00,CWS Microserver 2.2,2014-09-22 12:41:00,
2014-09-22 05:46:00,71.6,45.9,29.79,ESE,109,2.4,3.7,39,0.00,,,0.00,CWS Microserver 2.2,2014-09-22 12:46:00,
2014-09-22 05:51:00,71.4,45.8,29.79,SE,130,1.2,3.4,40,0.00,,,0.00,CWS Microserver 2.2,2014-09-22 12:51:00,
2014-09-22 05:56:00,71.4,45.7,29.79,SE,140,1.2,3.3,39,0.00,,,0.00,CWS Microserver 2.2,2014-09-22 12:56:00,
2014-09-22 06:01:00,71.4,45.9,29.79,ESE,109,1.3,2.9,40,0.00,,,0.00,CWS Microserver 2.2,2014-09-22 13:01:00,
2014-09-22 06:06:00,71.0,45.8,29.79,East,84,2.0,3.0,40,0.00,,,0.00,CWS Microserver 2.2,2014-09-22 13:06:00,
2014-09-22 06:11:00,69.9,46.4,29.79,ENE,59,2.9,3.0,43,0.00,,,0.00,CWS Microserver 2.2,2014-09-22 13:11:00,
2014-09-22 06:16:00,69.0,46.3,29.79,ENE,65,3.1,3.3,44,0.00,,,0.00,CWS Microserver 2.2,2014-09-22 13:16:00,
2014-09-22 06:21:00,68.1,47.1,29.79,ENE,69,2.1,3.7,47,0.00,,,0.00,CWS Microserver 2.2,2014-09-22 13:21:00,
2014-09-22 06:26:00,67.2,46.9,29.80,ENE,59,2.6,3.7,48,0.00,,,0.00,CWS Microserver 2.2,2014-09-22 13:26:00,
2014-09-22 06:31:00,66.7,47.5,29.80,ENE,72,1.5,3.0,50,0.00,,,0.00,CWS Microserver 2.2,2014-09-22 13:31:00,
2014-09-22 06:36:00,66.7,47.3,29.80,East,98,2.5,2.6,49,0.00,,,0.00,CWS Microserver 2.2,2014-09-22 13:36:00,
2014-09-22 06:41:00,66.3,47.4,29.80,East,91,3.3,3.7,50,0.00,,,0.00,CWS Microserver 2.2,2014-09-22 13:41:00,
2014-09-22 06:46:00,65.8,47.7,29.80,East,94,3.2,3.7,52,0.00,,,0.00,CWS Microserver 2.2,2014-09-22 13:46:00,
2014-09-22 06:51:00,65.3,48.1,29.80,East,92,4.4,5.7,53,0.00,,,0.00,CWS Microserver 2.2,2014-09-22 13:51:00,
2014-09-22 06:56:00,65.4,47.9,29.80,East,93,3.8,5.7,53,0.00,,,0.00,CWS Microserver 2.2,2014-09-22 13:56:00,
2014-09-22 07:01:00,66.2,48.0,29.80,East,96,2.0,4.9,51,0.00,,,0.00,CWS Microserver 2.2,2014-09-22 14:01:00,
2014-09-22 07:06:00,66.2,48.3,29.81,East,87,2.2,3.8,52,0.00,,,0.00,CWS Microserver 2.2,2014-09-22 14:06:00,
2014-09-22 07:11:00,65.8,48.1,29.81,East,87,2.4,3.9,52,0.00,,,0.00,CWS Microserver 2.2,2014-09-22 14:11:00,
2014-09-22 07:16:00,65.8,48.4,29.81,East,86,1.9,3.9,53,0.00,,,0.00,CWS Microserver 2.2,2014-09-22 14:16:00,
2014-09-22 07:21:00,66.0,48.4,29.81,ENE,77,3.3,3.6,53,0.00,,,0.00,CWS Microserver 2.2,2014-09-22 14:21:00,
2014-09-22 07:26:00,66.3,48.7,29.81,East,92,3.8,4.5,53,0.00,,,0.00,CWS Microserver 2.2,2014-09-22 14:26:00,
2014-09-22 07:31:00,66.0,48.7,29.81,East,96,3.6,4.8,53,0.00,,,0.00,CWS Microserver 2.2,2014-09-22 14:31:00,
2014-09-22 07:36:00,66.3,48.3,29.81,East,88,3.2,4.8,52,0.00,,,0.00,CWS Microserver 2.2,2014-09-22 14:36:00,
2014-09-22 07:41:00,67.1,48.2,29.81,East,89,2.9,4.3,50,0.00,,,0.00,CWS Microserver 2.2,2014-09-22 14:41:00,
2014-09-22 07:46:00,67.2,49.4,29.82,NE,37,1.8,4.0,53,0.00,,,0.00,CWS Microserver 2.2,2014-09-22 14:46:00,
2014-09-22 07:51:00,67.4,48.3,29.82,NE,53,1.6,2.9,50,0.00,,,0.00,CWS Microserver 2.2,2014-09-22 14:51:00,
2014-09-22 07:56:00,67.6,48.4,29.82,East,81,1.2,2.7,50,0.00,,,0.00,CWS Microserver 2.2,2014-09-22 14:56:00,
2014-09-22 08:01:00,67.8,48.9,29.82,East,81,1.6,1.9,50,0.00,,,0.00,CWS Microserver 2.2,2014-09-22 15:01:00,
2014-09-22 08:06:00,67.8,49.2,29.82,East,87,2.2,2.7,51,0.00,,,0.00,CWS Microserver 2.2,2014-09-22 15:06:00,
2014-09-22 08:11:00,68.0,48.8,29.82,East,95,2.5,3.7,50,0.00,,,0.00,CWS Microserver 2.2,2014-09-22 15:11:00,
2014-09-22 08:16:00,68.5,48.5,29.83,ESE,110,2.2,3.7,49,0.00,,,0.00,CWS Microserver 2.2,2014-09-22 15:16:00,
2014-09-22 08:21:00,68.5,48.2,29.83,SE,127,2.4,3.6,48,0.00,,,0.00,CWS Microserver 2.2,2014-09-22 15:21:00,
2014-09-22 08:26:00,69.0,48.6,29.83,East,101,3.0,3.6,48,0.00,,,0.00,CWS Microserver 2.2,2014-09-22 15:26:00,
2014-09-22 08:31:00,69.4,47.8,29.83,East,94,1.2,3.0,46,0.00,,,0.00,CWS Microserver 2.2,2014-09-22 15:31:00,
2014-09-22 08:36:00,70.1,47.8,29.84,ESE,107,1.9,3.0,45,0.00,,,0.00,CWS Microserver 2.2,2014-09-22 15:36:00,
2014-09-22 08:41:00,70.8,48.3,29.84,ESE,104,1.7,2.9,45,0.00,,,0.00,CWS Microserver 2.2,2014-09-22 15:41:00,
2014-09-22 08:46:00,71.7,47.3,29.84,SE,139,2.5,3.3,41,0.00,,,0.00,CWS Microserver 2.2,2014-09-22 15:46:00,
2014-09-22 08:51:00,72.6,46.9,29.84,SSW,199,1.7,5.7,40,0.00,,,0.00,CWS Microserver 2.2,2014-09-22 15:51:00,
2014-09-22 08:56:00,73.2,46.6,29.84,SSW,200,4.6,6.7,38,0.00,,,0.00,CWS Microserver 2.2,2014-09-22 15:56:00,
2014-09-22 09:01:00,73.4,46.5,29.84,South,186,5.3,6.7,38,0.00,,,0.00,CWS Microserver 2.2,2014-09-22 16:01:00,
2014-09-22 09:06:00,73.4,47.3,29.84,SSW,201,3.6,6.7,39,0.00,,,0.00,CWS Microserver 2.2,2014-09-22 16:06:00,
2014-09-22 09:11:00,73.4,46.8,29.84,South,180,3.3,6.5,38,0.00,,,0.00,CWS Microserver 2.2,2014-09-22 16:11:00,
2014-09-22 09:16:00,73.7,48.5,29.85,SSW,213,3.0,4.5,41,0.00,,,0.00,CWS Microserver 2.2,2014-09-22 16:16:00,
2014-09-22 09:21:00,73.7,47.7,29.85,South,183,3.4,7.8,39,0.00,,,0.00,CWS Microserver 2.2,2014-09-22 16:21:00,
2014-09-22 09:26:00,73.7,47.4,29.85,South,179,4.2,8.2,39,0.00,,,0.00,CWS Microserver 2.2,2014-09-22 16:26:00,
2014-09-22 09:31:00,74.1,47.9,29.85,SSW,212,4.1,8.2,39,0.00,,,0.00,CWS Microserver 2.2,2014-09-22 16:31:00,
2014-09-22 09:36:00,74.3,47.3,29.85,WSW,240,3.8,6.7,38,0.00,,,0.00,CWS Microserver 2.2,2014-09-22 16:36:00,
2014-09-22 09:41:00,74.4,47.3,29.86,SSW,205,3.9,8.1,38,0.00,,,0.00,CWS Microserver 2.2,2014-09-22 16:41:00,
2014-09-22 09:46:00,74.4,47.1,29.86,SSW,195,4.4,8.2,38,0.00,,,0.00,CWS Microserver 2.2,2014-09-22 16:46:00,
2014-09-22 09:51:00,74.4,47.3,29.86,South,178,5.4,8.2,38,0.00,,,0.00,CWS Microserver 2.2,2014-09-22 16:51:00,
2014-09-22 09:56:00,74.4,47.5,29.86,SSW,198,5.4,7.6,38,0.00,,,0.00,CWS Microserver 2.2,2014-09-22 16:56:00,
2014-09-22 10:01:00,74.8,48.5,29.86,South,173,4.6,7.2,39,0.00,,,0.00,CWS Microserver 2.2,2014-09-22 17:01:00,
2014-09-22 10:06:00,75.5,47.5,29.86,South,185,7.5,10.7,37,0.00,,,0.00,CWS Microserver 2.2,2014-09-22 17:06:00,
2014-09-22 10:11:00,76.4,48.3,29.86,SW,214,4.8,10.7,37,0.00,,,0.00,CWS Microserver 2.2,2014-09-22 17:11:00,
2014-09-22 10:16:00,77.3,48.6,29.86,South,191,7.9,10.9,36,0.00,,,0.00,CWS Microserver 2.2,2014-09-22 17:16:00,
2014-09-22 10:21:00,77.7,48.8,29.86,SSW,208,6.4,10.9,36,0.00,,,0.00,CWS Microserver 2.2,2014-09-22 17:21:00,
2014-09-22 10:26:00,78.4,48.2,29.86,SSW,202,10.5,12.8,34,0.00,,,0.00,CWS Microserver 2.2,2014-09-22 17:26:00,
2014-09-22 10:31:00,78.4,47.8,29.86,SW,229,7.3,14.0,34,0.00,,,0.00,CWS Microserver 2.2,2014-09-22 17:31:00,
2014-09-22 10:36:00,78.6,48.7,29.86,SW,226,5.9,14.0,35,0.00,,,0.00,CWS Microserver 2.2,2014-09-22 17:36:00,
2014-09-22 10:41:00,79.1,49.2,29.86,SSW,212,9.5,13.3,35,0.00,,,0.00,CWS Microserver 2.2,2014-09-22 17:41:00,
2014-09-22 10:46:00,79.3,48.4,29.86,WSW,250,6.0,13.3,34,0.00,,,0.00,CWS Microserver 2.2,2014-09-22 17:46:00,
2014-09-22 10:51:00,79.5,48.1,29.86,WSW,237,9.7,13.5,33,0.00,,,0.00,CWS Microserver 2.2,2014-09-22 17:51:00,
2014-09-22 10:56:00,79.8,49.2,29.86,SW,226,6.5,13.5,34,0.00,,,0.00,CWS Microserver 2.2,2014-09-22 17:56:00,
2014-09-22 11:01:00,80.4,48.6,29.86,SW,218,7.4,12.0,33,0.00,,,0.00,CWS Microserver 2.2,2014-09-22 18:01:00,
2014-09-22 11:06:00,80.4,48.5,29.86,SW,222,7.5,11.4,32,0.00,,,0.00,CWS Microserver 2.2,2014-09-22 18:06:00,
2014-09-22 11:11:00,80.9,48.3,29.85,SSW,195,9.4,11.9,32,0.00,,,0.00,CWS Microserver 2.2,2014-09-22 18:11:00,
2014-09-22 11:16:00,80.9,48.7,29.85,WNW,293,5.2,11.9,32,0.00,,,0.00,CWS Microserver 2.2,2014-09-22 18:16:00,
2014-09-22 11:21:00,81.3,49.2,29.85,West,262,6.8,12.0,32,0.00,,,0.00,CWS Microserver 2.2,2014-09-22 18:21:00,
2014-09-22 11:26:00,81.3,48.9,29.85,West,266,6.1,12.5,32,0.00,,,0.00,CWS Microserver 2.2,2014-09-22 18:26:00,
2014-09-22 11:31:00,81.5,49.1,29.85,WSW,247,6.9,12.5,32,0.00,,,0.00,CWS Microserver 2.2,2014-09-22 18:31:00,
2014-09-22 11:36:00,81.6,49.5,29.85,WSW,245,9.9,11.9,32,0.00,,,0.00,CWS Microserver 2.2,2014-09-22 18:36:00,
2014-09-22 11:41:00,82.2,48.7,29.85,SW,231,9.3,13.5,31,0.00,,,0.00,CWS Microserver 2.2,2014-09-22 18:41:00,
2014-09-22 11:46:00,81.8,49.2,29.85,SW,223,6.0,13.5,32,0.00,,,0.00,CWS Microserver 2.2,2014-09-22 18:46:00,
2014-09-22 11:51:00,82.4,48.5,29.85,SW,234,7.1,13.8,30,0.00,,,0.00,CWS Microserver 2.2,2014-09-22 18:51:00,
2014-09-22 11:56:00,82.5,48.4,29.85,SSW,201,4.8,13.8,30,0.00,,,0.00,CWS Microserver 2.2,2014-09-22 18:56:00,
2014-09-22 12:01:00,81.8,48.5,29.85,SW,217,7.7,16.6,31,0.00,,,0.00,CWS Microserver 2.2,2014-09-22 19:01:00,
2014-09-22 12:06:00,82.0,49.3,29.85,South,178,5.3,16.6,32,0.00,,,0.00,CWS Microserver 2.2,2014-09-22 19:06:00,
2014-09-22 12:11:00,82.2,48.7,29.85,SW,220,8.5,13.7,31,0.00,,,0.00,CWS Microserver 2.2,2014-09-22 19:11:00,
2014-09-22 12:16:00,82.9,49.1,29.85,SW,233,6.0,14.4,31,0.00,,,0.00,CWS Microserver 2.2,2014-09-22 19:16:00,
2014-09-22 12:21:00,83.4,49.3,29.84,SW,221,8.9,14.4,30,0.00,,,0.00,CWS Microserver 2.2,2014-09-22 19:21:00,
2014-09-22 12:26:00,83.6,48.6,29.84,SW,235,4.8,13.0,29,0.00,,,0.00,CWS Microserver 2.2,2014-09-22 19:26:00,
2014-09-22 12:31:00,84.0,48.0,29.84,SW,229,10.9,13.5,28,0.00,,,0.00,CWS Microserver 2.2,2014-09-22 19:31:00,
2014-09-22 12:36:00,83.8,48.1,29.84,SSW,207,9.7,13.5,29,0.00,,,0.00,CWS Microserver 2.2,2014-09-22 19:36:00,
2014-09-22 12:41:00,84.0,48.8,29.84,SW,229,6.3,13.1,29,0.00,,,0.00,CWS Microserver 2.2,2014-09-22 19:41:00,
2014-09-22 12:46:00,83.6,48.3,29.84,WSW,243,4.0,12.7,29,0.00,,,0.00,CWS Microserver 2.2,2014-09-22 19:46:00,
2014-09-22 12:51:00,83.6,48.5,29.84,SW,227,6.1,12.7,29,0.00,,,0.00,CWS Microserver 2.2,2014-09-22 19:51:00,
2014-09-22 12:56:00,83.6,49.5,29.84,SW,226,6.4,15.4,30,0.00,,,0.00,CWS Microserver 2.2,2014-09-22 19:56:00,
2014-09-22 13:01:00,83.6,48.1,29.84,West,270,7.3,15.4,29,0.00,,,0.00,CWS Microserver 2.2,2014-09-22 20:01:00,
2014-09-22 13:06:00,83.4,47.3,29.84,West,265,10.3,14.3,28,0.00,,,0.00,CWS Microserver 2.2,2014-09-22 20:06:00,
2014-09-22 13:11:00,84.0,48.2,29.84,WSW,247,9.2,14.3,29,0.00,,,0.00,CWS Microserver 2.2,2014-09-22 20:11:00,
2014-09-22 13:16:00,84.5,47.8,29.84,WSW,249,8.0,15.6,28,0.00,,,0.00,CWS Microserver 2.2,2014-09-22 20:16:00,
2014-09-22 13:21:00,84.7,48.4,29.83,SW,215,8.7,15.6,28,0.00,,,0.00,CWS Microserver 2.2,2014-09-22 20:21:00,
2014-09-22 13:26:00,84.3,48.4,29.84,SW,221,11.9,15.5,28,0.00,,,0.00,CWS Microserver 2.2,2014-09-22 20:26:00,
2014-09-22 13:31:00,84.9,48.7,29.83,SSW,202,6.7,15.5,28,0.00,,,0.00,CWS Microserver 2.2,2014-09-22 20:31:00,
2014-09-22 13:36:00,84.5,49.0,29.83,SW,217,6.7,13.6,29,0.00,,,0.00,CWS Microserver 2.2,2014-09-22 20:36:00,
2014-09-22 13:41:00,84.5,48.9,29.83,SW,222,11.8,13.1,29,0.00,,,0.00,CWS Microserver 2.2,2014-09-22 20:41:00,
2014-09-22 13:46:00,84.7,49.1,29.83,SW,235,9.3,13.3,29,0.00,,,0.00,CWS Microserver 2.2,2014-09-22 20:46:00,
2014-09-22 13:51:00,84.3,48.8,29.83,NW,305,9.1,13.3,29,0.00,,,0.00,CWS Microserver 2.2,2014-09-22 20:51:00,
2014-09-22 13:56:00,84.2,48.8,29.83,West,274,11.8,15.7,29,0.00,,,0.00,CWS Microserver 2.2,2014-09-22 20:56:00,
2014-09-22 14:01:00,83.6,48.8,29.83,WNW,293,2.2,15.7,30,0.00,,,0.00,CWS Microserver 2.2,2014-09-22 21:01:00,
2014-09-22 14:06:00,83.4,48.2,29.83,West,270,8.5,14.0,29,0.00,,,0.00,CWS Microserver 2.2,2014-09-22 21:06:00,
2014-09-22 14:11:00,83.6,48.4,29.83,WSW,242,5.1,14.0,29,0.00,,,0.00,CWS Microserver 2.2,2014-09-22 21:11:00,
2014-09-22 14:16:00,83.4,48.1,29.83,WSW,257,6.5,12.0,29,0.00,,,0.00,CWS Microserver 2.2,2014-09-22 21:16:00,
2014-09-22 14:21:00,83.3,48.8,29.83,West,272,2.2,12.0,30,0.00,,,0.00,CWS Microserver 2.2,2014-09-22 21:21:00,
2014-09-22 14:26:00,83.3,48.3,29.82,WNW,282,5.3,10.5,29,0.00,,,0.00,CWS Microserver 2.2,2014-09-22 21:26:00,
2014-09-22 14:31:00,82.4,48.6,29.83,West,276,7.7,12.8,31,0.00,,,0.00,CWS Microserver 2.2,2014-09-22 21:31:00,
2014-09-22 14:36:00,81.6,48.5,29.82,WNW,303,7.7,12.8,31,0.00,,,0.00,CWS Microserver 2.2,2014-09-22 21:36:00,
2014-09-22 14:41:00,81.1,47.6,29.82,WNW,300,6.8,10.2,31,0.00,,,0.00,CWS Microserver 2.2,2014-09-22 21:41:00,
2014-09-22 14:46:00,80.7,47.0,29.82,WNW,284,8.0,10.5,30,0.00,,,0.00,CWS Microserver 2.2,2014-09-22 21:46:00,
2014-09-22 14:51:00,80.7,46.3,29.82,West,279,4.2,11.6,30,0.00,,,0.00,CWS Microserver 2.2,2014-09-22 21:51:00,
2014-09-22 14:56:00,80.7,46.6,29.82,West,266,4.3,11.6,30,0.00,,,0.00,CWS Microserver 2.2,2014-09-22 21:56:00,
2014-09-22 15:01:00,80.4,47.2,29.82,West,259,4.8,10.2,31,0.00,,,0.00,CWS Microserver 2.2,2014-09-22 22:01:00,
2014-09-22 15:06:00,80.0,47.0,29.82,West,276,6.6,10.2,31,0.00,,,0.00,CWS Microserver 2.2,2014-09-22 22:06:00,
2014-09-22 15:11:00,79.8,46.4,29.82,WSW,246,5.5,10.4,31,0.00,,,0.00,CWS Microserver 2.2,2014-09-22 22:11:00,
2014-09-22 15:16:00,79.7,46.2,29.82,West,265,4.1,10.4,30,0.00,,,0.00,CWS Microserver 2.2,2014-09-22 22:16:00,
2014-09-22 15:21:00,79.7,45.8,29.82,SW,236,4.8,7.8,30,0.00,,,0.00,CWS Microserver 2.2,2014-09-22 22:21:00,
2014-09-22 15:26:00,79.7,45.8,29.82,WSW,244,2.8,7.8,30,0.00,,,0.00,CWS Microserver 2.2,2014-09-22 22:26:00,
2014-09-22 15:31:00,79.8,46.2,29.82,SW,227,3.3,6.4,30,0.00,,,0.00,CWS Microserver 2.2,2014-09-22 22:31:00,
2014-09-22 15:36:00,79.8,45.6,29.82,WSW,246,6.1,8.3,30,0.00,,,0.00,CWS Microserver 2.2,2014-09-22 22:36:00,
2014-09-22 15:41:00,79.5,45.6,29.82,WSW,246,3.5,8.3,30,0.00,,,0.00,CWS Microserver 2.2,2014-09-22 22:41:00,
2014-09-22 15:46:00,79.5,45.6,29.81,SW,233,3.3,8.3,30,0.00,,,0.00,CWS Microserver 2.2,2014-09-22 22:46:00,
2014-09-22 15:51:00,79.3,46.5,29.81,West,272,0.9,6.1,31,0.00,,,0.00,CWS Microserver 2.2,2014-09-22 22:51:00,
2014-09-22 15:56:00,79.3,45.2,29.82,South,177,1.8,4.7,30,0.00,,,0.00,CWS Microserver 2.2,2014-09-22 22:56:00,
2014-09-22 16:01:00,79.3,45.1,29.82,SW,222,2.9,4.6,30,0.00,,,0.00,CWS Microserver 2.2,2014-09-22 23:01:00,
2014-09-22 16:06:00,79.7,46.4,29.81,SW,224,0.7,4.6,31,0.00,,,0.00,CWS Microserver 2.2,2014-09-22 23:06:00,
2014-09-22 16:11:00,80.4,46.1,29.81,SE,125,1.8,3.8,30,0.00,,,0.00,CWS Microserver 2.2,2014-09-22 23:11:00,
2014-09-22 16:16:00,80.6,46.8,29.81,ENE,59,1.0,2.7,30,0.00,,,0.00,CWS Microserver 2.2,2014-09-22 23:16:00,
2014-09-22 16:21:00,81.3,46.3,29.81,South,174,2.7,2.8,29,0.00,,,0.00,CWS Microserver 2.2,2014-09-22 23:21:00,
2014-09-22 16:26:00,81.3,45.4,29.81,SE,134,0.4,3.5,28,0.00,,,0.00,CWS Microserver 2.2,2014-09-22 23:26:00,
2014-09-22 16:31:00,81.5,45.0,29.81,SSW,211,1.0,3.8,27,0.00,,,0.00,CWS Microserver 2.2,2014-09-22 23:31:00,
2014-09-22 16:36:00,81.3,45.4,29.81,South,185,2.5,3.9,28,0.00,,,0.00,CWS Microserver 2.2,2014-09-22 23:36:00,
2014-09-22 16:41:00,80.9,45.0,29.81,South,183,3.4,4.4,28,0.00,,,0.00,CWS Microserver 2.2,2014-09-22 23:41:00,
2014-09-22 16:46:00,80.9,45.5,29.80,SSW,212,1.7,4.4,28,0.00,,,0.00,CWS Microserver 2.2,2014-09-22 23:46:00,
2014-09-22 16:51:00,80.7,45.8,29.80,SSW,201,2.3,4.9,29,0.00,,,0.00,CWS Microserver 2.2,2014-09-22 23:51:00,
2014-09-22 16:56:00,80.4,46.3,29.80,South,170,2.8,4.9,30,0.00,,,0.00,CWS Microserver 2.2,2014-09-22 23:56:00,
2014-09-22 17:01:00,80.2,45.5,29.80,South,188,1.4,4.3,29,0.00,,,0.00,CWS Microserver 2.2,2014-09-23 00:01:00,
2014-09-22 17:06:00,80.2,45.6,29.80,SW,235,2.3,3.9,29,0.00,,,0.00,CWS Microserver 2.2,2014-09-23 00:06:00,
2014-09-22 17:11:00,80.2,45.9,29.80,South,186,1.6,2.5,30,0.00,,,0.00,CWS Microserver 2.2,2014-09-23 00:11:00,
2014-09-22 17:16:00,80.2,45.6,29.80,SSW,204,2.2,3.1,29,0.00,,,0.00,CWS Microserver 2.2,2014-09-23 00:16:00,
2014-09-22 17:21:00,80.2,45.9,29.80,SSW,200,3.4,4.4,30,0.00,,,0.00,CWS Microserver 2.2,2014-09-23 00:21:00,
2014-09-22 17:26:00,80.0,47.1,29.80,SSE,165,2.2,4.4,31,0.00,,,0.00,CWS Microserver 2.2,2014-09-23 00:26:00,
2014-09-22 17:31:00,79.7,48.0,29.79,SE,137,1.3,4.4,33,0.00,,,0.00,CWS Microserver 2.2,2014-09-23 00:31:00,
2014-09-22 17:36:00,79.3,48.0,29.79,SE,128,2.4,3.2,33,0.00,,,0.00,CWS Microserver 2.2,2014-09-23 00:36:00,
2014-09-22 17:41:00,78.9,48.0,29.79,SE,128,2.2,3.2,33,0.00,,,0.00,CWS Microserver 2.2,2014-09-23 00:41:00,
2014-09-22 17:46:00,78.8,49.1,29.79,ESE,109,1.9,3.2,35,0.00,,,0.00,CWS Microserver 2.2,2014-09-23 00:46:00,
2014-09-22 17:51:00,78.2,49.5,29.79,ESE,105,2.1,2.6,36,0.00,,,0.00,CWS Microserver 2.2,2014-09-23 00:51:00,
2014-09-22 17:56:00,77.5,49.5,29.79,ESE,120,2.5,3.2,37,0.00,,,0.00,CWS Microserver 2.2,2014-09-23 00:56:00,
2014-09-22 18:01:00,77.0,49.1,29.79,ESE,122,2.5,3.5,37,0.00,,,0.00,CWS Microserver 2.2,2014-09-23 01:01:00,
2014-09-22 18:06:00,77.0,48.4,29.79,ESE,114,2.7,3.6,36,0.00,,,0.00,CWS Microserver 2.2,2014-09-23 01:06:00,
2014-09-22 18:11:00,77.0,48.8,29.79,ESE,119,3.6,3.8,37,0.00,,,0.00,CWS Microserver 2.2,2014-09-23 01:11:00,
2014-09-22 18:16:00,77.1,47.1,29.80,SE,132,3.1,3.9,34,0.00,,,0.00,CWS Microserver 2.2,2014-09-23 01:16:00,
2014-09-22 18:21:00,77.9,46.6,29.80,SSE,153,3.7,4.7,33,0.00,,,0.00,CWS Microserver 2.2,2014-09-23 01:21:00,
2014-09-22 18:26:00,77.9,48.5,29.80,ESE,107,2.7,4.7,35,0.00,,,0.00,CWS Microserver 2.2,2014-09-23 01:26:00,
2014-09-22 18:31:00,77.3,48.4,29.80,East,89,1.2,4.6,36,0.00,,,0.00,CWS Microserver 2.2,2014-09-23 01:31:00,
2014-09-22 18:36:00,76.8,48.5,29.81,ESE,107,2.5,3.7,37,0.00,,,0.00,CWS Microserver 2.2,2014-09-23 01:36:00,
2014-09-22 18:41:00,76.1,50.8,29.81,NNW,339,1.7,3.7,41,0.01,,,0.01,CWS Microserver 2.2,2014-09-23 01:41:00,
2014-09-22 18:46:00,75.5,49.3,29.81,SE,137,1.4,3.7,39,0.01,,,0.01,CWS Microserver 2.2,2014-09-23 01:46:00,
2014-09-22 18:51:00,75.5,51.3,29.81,ESE,123,3.2,3.7,42,0.01,,,0.01,CWS Microserver 2.2,2014-09-23 01:51:00,
2014-09-22 18:56:00,75.2,52.2,29.80,SE,126,2.9,4.2,44,0.01,,,0.01,CWS Microserver 2.2,2014-09-23 01:56:00,
2014-09-22 19:01:00,74.1,52.9,29.80,East,97,4.6,5.7,47,0.01,,,0.01,CWS Microserver 2.2,2014-09-23 02:01:00,
2014-09-22 19:06:00,73.2,53.5,29.80,SE,126,1.9,6.7,50,0.01,,,0.01,CWS Microserver 2.2,2014-09-23 02:06:00,
2014-09-22 19:11:00,72.8,53.5,29.80,East,87,3.6,6.7,50,0.01,,,0.01,CWS Microserver 2.2,2014-09-23 02:11:00,
2014-09-22 19:16:00,72.3,53.4,29.80,ESE,105,6.8,8.5,51,0.01,,,0.01,CWS Microserver 2.2,2014-09-23 02:16:00,
2014-09-22 19:21:00,72.3,52.7,29.80,ESE,122,4.2,8.8,50,0.01,,,0.01,CWS Microserver 2.2,2014-09-23 02:21:00,
2014-09-22 19:26:00,72.8,52.8,29.80,ESE,120,2.7,8.8,49,0.01,,,0.01,CWS Microserver 2.2,2014-09-23 02:26:00,
2014-09-22 19:31:00,72.6,52.6,29.79,ESE,121,4.0,7.2,49,0.01,,,0.01,CWS Microserver 2.2,2014-09-23 02:31:00,
2014-09-22 19:36:00,72.8,52.2,29.79,East,86,8.5,8.5,48,0.01,,,0.01,CWS Microserver 2.2,2014-09-23 02:36:00,
2014-09-22 19:41:00,73.0,52.3,29.79,ESE,109,8.2,9.0,48,0.00,,,0.01,CWS Microserver 2.2,2014-09-23 02:41:00,
2014-09-22 19:46:00,73.2,51.5,29.79,East,90,5.7,10.6,46,0.00,,,0.01,CWS Microserver 2.2,2014-09-23 02:46:00,
2014-09-22 19:51:00,73.7,51.2,29.79,ESE,113,12.3,12.3,45,0.00,,,0.01,CWS Microserver 2.2,2014-09-23 02:51:00,
2014-09-22 19:56:00,73.4,53.2,29.79,ESE,108,9.3,15.9,49,0.00,,,0.01,CWS Microserver 2.2,2014-09-23 02:56:00,
2014-09-22 20:01:00,73.0,52.1,29.79,ESE,104,12.8,16.0,48,0.00,,,0.01,CWS Microserver 2.2,2014-09-23 03:01:00,
2014-09-22 20:06:00,73.5,52.3,29.79,ESE,112,7.2,16.0,47,0.00,,,0.01,CWS Microserver 2.2,2014-09-23 03:06:00,
2014-09-22 20:11:00,73.2,52.3,29.79,ESE,104,10.4,13.5,48,0.00,,,0.01,CWS Microserver 2.2,2014-09-23 03:11:00,
2014-09-22 20:16:00,73.0,52.9,29.80,SSE,156,4.6,12.4,49,0.00,,,0.01,CWS Microserver 2.2,2014-09-23 03:16:00,
2014-09-22 20:21:00,73.0,53.5,29.81,SSE,151,4.8,11.6,50,0.00,,,0.01,CWS Microserver 2.2,2014-09-23 03:21:00,
2014-09-22 20:26:00,72.3,55.7,29.82,South,187,11.8,12.1,56,0.01,,,0.02,CWS Microserver 2.2,2014-09-23 03:26:00,
2014-09-22 20:31:00,70.7,56.9,29.84,SSW,209,5.5,12.1,61,0.02,,,0.03,CWS Microserver 2.2,2014-09-23 03:31:00,
2014-09-22 20:36:00,69.0,58.4,29.85,SW,222,4.7,11.8,69,0.05,,,0.06,CWS Microserver 2.2,2014-09-23 03:36:00,
2014-09-22 20:41:00,68.0,59.0,29.86,SSW,207,5.5,7.8,73,0.07,,,0.08,CWS Microserver 2.2,2014-09-23 03:41:00,
2014-09-22 20:46:00,67.4,59.0,29.86,SSW,211,6.1,7.8,74,0.07,,,0.08,CWS Microserver 2.2,2014-09-23 03:46:00,
2014-09-22 20:51:00,67.6,57.9,29.86,South,177,7.7,12.6,71,0.07,,,0.08,CWS Microserver 2.2,2014-09-23 03:51:00,
2014-09-22 20:56:00,68.1,56.7,29.87,SSW,204,14.0,14.0,67,0.08,,,0.09,CWS Microserver 2.2,2014-09-23 03:56:00,
2014-09-22 21:01:00,68.0,56.1,29.87,SSW,203,17.2,18.3,65,0.08,,,0.09,CWS Microserver 2.2,2014-09-23 04:01:00,
2014-09-22 21:06:00,66.7,57.3,29.89,SSW,206,12.1,18.3,71,0.12,,,0.13,CWS Microserver 2.2,2014-09-23 04:06:00,
2014-09-22 21:11:00,66.2,57.1,29.89,South,183,7.4,17.6,72,0.16,,,0.17,CWS Microserver 2.2,2014-09-23 04:11:00,
2014-09-22 21:16:00,66.7,57.2,29.89,SSE,154,11.8,17.2,71,0.19,,,0.20,CWS Microserver 2.2,2014-09-23 04:16:00,
2014-09-22 21:21:00,66.2,57.8,29.90,South,171,6.1,19.2,74,0.19,,,0.20,CWS Microserver 2.2,2014-09-23 04:21:00,
2014-09-22 21:26:00,65.6,57.4,29.89,SSE,167,12.8,19.2,74,0.19,,,0.21,CWS Microserver 2.2,2014-09-23 04:26:00,
2014-09-22 21:31:00,65.4,57.9,29.90,SSE,149,10.0,16.2,76,0.20,,,0.23,CWS Microserver 2.2,2014-09-23 04:31:00,
2014-09-22 21:36:00,65.1,58.0,29.90,ESE,118,9.1,13.7,77,0.19,,,0.25,CWS Microserver 2.2,2014-09-23 04:36:00,
2014-09-22 21:41:00,64.9,58.2,29.90,ESE,113,4.6,11.3,79,0.21,,,0.29,CWS Microserver 2.2,2014-09-23 04:41:00,
2014-09-22 21:46:00,64.5,57.9,29.89,ESE,102,6.1,9.8,79,0.25,,,0.33,CWS Microserver 2.2,2014-09-23 04:46:00,
2014-09-22 21:51:00,64.4,57.8,29.89,ESE,118,9.8,10.1,79,0.26,,,0.34,CWS Microserver 2.2,2014-09-23 04:51:00,
2014-09-22 21:56:00,64.7,57.6,29.89,ESE,109,9.4,13.5,77,0.26,,,0.35,CWS Microserver 2.2,2014-09-23 04:56:00,
2014-09-22 22:01:00,65.1,57.5,29.88,ESE,108,15.9,21.3,76,0.27,,,0.36,CWS Microserver 2.2,2014-09-23 05:01:00,
2014-09-22 22:06:00,65.8,57.3,29.86,East,90,15.5,24.1,74,0.23,,,0.36,CWS Microserver 2.2,2014-09-23 05:06:00,
2014-09-22 22:11:00,66.3,56.9,29.86,ESE,109,17.3,28.6,71,0.20,,,0.37,CWS Microserver 2.2,2014-09-23 05:11:00,
2014-09-22 22:16:00,66.3,57.4,29.85,East,93,13.5,28.6,73,0.18,,,0.38,CWS Microserver 2.2,2014-09-23 05:16:00,
2014-09-22 22:21:00,66.3,56.9,29.85,ESE,106,15.5,27.6,71,0.19,,,0.39,CWS Microserver 2.2,2014-09-23 05:21:00,
2014-09-22 22:26:00,66.7,57.0,29.83,East,96,25.1,28.5,71,0.19,,,0.40,CWS Microserver 2.2,2014-09-23 05:26:00,
2014-09-22 22:31:00,66.5,57.1,29.84,ESE,107,14.8,28.5,71,0.18,,,0.41,CWS Microserver 2.2,2014-09-23 05:31:00,
2014-09-22 22:36:00,66.7,57.1,29.83,ESE,105,18.0,26.5,71,0.16,,,0.41,CWS Microserver 2.2,2014-09-23 05:36:00,
2014-09-22 22:41:00,66.7,57.2,29.83,ESE,108,16.0,26.5,71,0.12,,,0.41,CWS Microserver 2.2,2014-09-23 05:41:00,
2014-09-22 22:46:00,66.7,57.0,29.83,ESE,109,19.9,23.1,71,0.08,,,0.41,CWS Microserver 2.2,2014-09-23 05:46:00,
2014-09-22 22:51:00,67.2,56.8,29.83,ESE,109,16.8,22.2,69,0.07,,,0.41,CWS Microserver 2.2,2014-09-23 05:51:00,